| time (UTC) | temp F | wind direction | speed knots | gust knots | rain 1hr in | rain 24hr in | rain mn in | humidity % | barometer mb |
| 20260510095126 | 41 | 75 | 3.5 | 5.2 | 0.00 | 0.05 | 0.00 | 69 | 1009.1 |
| 20260510094626 | 41 | 103 | 0.9 | 3.5 | 0.00 | 0.05 | 0.00 | 69 | 1009.2 |
| 20260510094126 | 41 | 99 | 2.6 | 5.2 | 0.00 | 0.05 | 0.00 | 69 | 1009.1 |
| 20260510093626 | 41 | 95 | 0.9 | 5.2 | 0.00 | 0.05 | 0.00 | 68 | 1008.7 |
| 20260510093125 | 41 | 139 | 2.6 | 6.1 | 0.00 | 0.05 | 0.00 | 68 | 1008.8 |
| 20260510092626 | 42 | 81 | 1.7 | 6.1 | 0.00 | 0.05 | 0.00 | 68 | 1008.8 |
| 20260510092126 | 42 | 125 | 1.7 | 3.5 | 0.00 | 0.05 | 0.00 | 68 | 1008.7 |
| 20260510091626 | 42 | 161 | 1.7 | 3.5 | 0.00 | 0.05 | 0.00 | 68 | 1008.7 |
| 20260510091125 | 42 | 84 | 0.9 | 6.1 | 0.00 | 0.05 | 0.00 | 68 | 1008.7 |
| 20260510090626 | 42 | 115 | 0.9 | 6.1 | 0.00 | 0.05 | 0.00 | 67 | 1008.5 |
| 20260510090126 | 42 | 119 | 2.6 | 6.1 | 0.00 | 0.05 | 0.00 | 67 | 1008.4 |
| 20260510085625 | 43 | 126 | 1.7 | 5.2 | 0.00 | 0.05 | 0.00 | 67 | 1008.4 |
| 20260510085125 | 43 | 138 | 2.6 | 5.2 | 0.00 | 0.05 | 0.00 | 67 | 1008.4 |
| 20260510084626 | 43 | 108 | 0.9 | 6.1 | 0.00 | 0.05 | 0.00 | 67 | 1008.4 |
| 20260510084126 | 43 | 123 | 1.7 | 7.0 | 0.00 | 0.05 | 0.00 | 66 | 1008.6 |
| 20260510083626 | 44 | 134 | 1.7 | 7.0 | 0.00 | 0.05 | 0.00 | 65 | 1008.2 |
| 20260510083126 | 44 | 114 | 1.7 | 7.0 | 0.00 | 0.05 | 0.00 | 65 | 1008.2 |
| 20260510082626 | 44 | 111 | 1.7 | 7.0 | 0.00 | 0.05 | 0.00 | 64 | 1008.4 |
| 20260510082126 | 44 | 172 | 0.9 | 7.0 | 0.00 | 0.05 | 0.00 | 64 | 1008.1 |
| 20260510081625 | 44 | 70 | 2.6 | 7.0 | 0.00 | 0.05 | 0.00 | 64 | 1008.1 |
| 20260510081126 | 45 | 116 | 4.3 | 7.0 | 0.00 | 0.05 | 0.00 | 63 | 1007.9 |
| 20260510080625 | 45 | 131 | 1.7 | 7.0 | 0.00 | 0.05 | 0.00 | 62 | 1008.3 |
| 20260510080125 | 45 | 98 | 3.5 | 7.0 | 0.00 | 0.05 | 0.00 | 62 | 1008.0 |
| 20260510075848 | 46 | 96 | 3.5 | 7.8 | 0.00 | 0.05 | 0.00 | 61 | 1007.7 |
| 20260510075124 | 46 | 164 | 2.6 | 7.8 | 0.00 | 0.05 | 0.00 | 60 | 1008.0 |
| 20260510074624 | 46 | 93 | 4.3 | 6.1 | 0.00 | 0.05 | 0.00 | 60 | 1007.8 |
| 20260510074125 | 46 | 140 | 1.7 | 3.5 | 0.00 | 0.05 | 0.00 | 61 | 1007.8 |
| 20260510073625 | 47 | 147 | 1.7 | 3.5 | 0.00 | 0.05 | 0.00 | 60 | 1007.8 |
| 20260510073125 | 47 | 99 | 1.7 | 3.5 | 0.00 | 0.05 | 0.00 | 60 | 1007.7 |
| 20260510072625 | 47 | 131 | 2.6 | 3.5 | 0.00 | 0.05 | 0.00 | 59 | 1007.8 |
| 20260510072346 | 48 | 129 | 1.7 | 5.2 | 0.00 | 0.05 | 0.00 | 58 | 1007.6 |
| 20260510071613 | 48 | 143 | 0.9 | 6.1 | 0.00 | 0.05 | 0.00 | 58 | 1007.4 |
| 20260510071015 | 48 | 111 | 2.6 | 7.0 | 0.00 | 0.05 | 0.00 | 58 | 1007.5 |
| 20260510070515 | 49 | 83 | 2.6 | 7.0 | 0.00 | 0.05 | 0.00 | 57 | 1007.4 |
| 20260510070015 | 49 | 168 | 0.9 | 5.2 | 0.00 | 0.05 | 0.00 | 59 | 1007.4 |
| 20260510065515 | 49 | 96 | 0.9 | 3.5 | 0.00 | 0.05 | 0.00 | 60 | 1007.3 |
| 20260510065015 | 48 | 115 | 1.7 | 2.6 | 0.00 | 0.05 | 0.00 | 62 | 1007.3 |
| 20260510064516 | 49 | 16 | 0.9 | 2.6 | 0.00 | 0.05 | 0.00 | 62 | 1007.3 |
| 20260510064245 | 49 | 78 | 1.7 | 3.5 | 0.00 | 0.05 | 0.00 | 62 | 1007.4 |
| 20260510063515 | 49 | 95 | 0.9 | 3.5 | 0.00 | 0.05 | 0.00 | 62 | 1007.2 |
| 20260510063016 | 49 | 20 | 0.9 | 3.5 | 0.00 | 0.05 | 0.00 | 62 | 1007.1 |
| 20260510062515 | 49 | 84 | 0.0 | 2.6 | 0.00 | 0.05 | 0.00 | 63 | 1007.2 |
| 20260510062015 | 49 | 117 | 2.6 | 5.2 | 0.00 | 0.05 | 0.00 | 63 | 1007.0 |
| 20260510061959 | 49 | 83 | 3.5 | 5.2 | 0.00 | 0.05 | 0.00 | 64 | 1006.9 |
| 20260510061234 | 49 | 65 | 0.9 | 2.6 | 0.00 | 0.05 | 0.00 | 65 | 1007.0 |
| 20260510060515 | 49 | 64 | 0.0 | 2.6 | 0.00 | 0.05 | 0.00 | 66 | 1006.9 |
| 20260510060016 | 49 | 111 | 0.0 | 2.6 | 0.00 | 0.05 | 0.00 | 65 | 1006.5 |
| 20260510055736 | 49 | 121 | 0.9 | 3.5 | 0.00 | 0.05 | 0.00 | 65 | 1006.7 |
| 20260510055240 | 49 | 104 | 2.6 | 3.5 | 0.00 | 0.05 | 0.00 | 65 | 1006.7 |
| 20260510054515 | 49 | 145 | 0.9 | 3.5 | 0.00 | 0.05 | 0.00 | 64 | 1006.5 |
| 20260510054016 | 49 | 115 | 0.9 | 3.5 | 0.00 | 0.05 | 0.00 | 64 | 1006.4 |
| 20260510053516 | 49 | 102 | 0.9 | 3.5 | 0.00 | 0.05 | 0.00 | 64 | 1006.5 |
| 20260510053015 | 49 | 106 | 0.9 | 5.2 | 0.00 | 0.05 | 0.00 | 64 | 1006.5 |
| 20260510052516 | 49 | 85 | 0.9 | 7.8 | 0.00 | 0.05 | 0.00 | 63 | 1006.6 |
| 20260510052454 | 49 | 121 | 0.9 | 7.8 | 0.00 | 0.05 | 0.00 | 64 | 1006.5 |
| 20260510051516 | 49 | 115 | 1.7 | 5.2 | 0.00 | 0.05 | 0.00 | 64 | 1006.5 |
| 20260510051238 | 49 | 133 | 1.7 | 5.2 | 0.00 | 0.05 | 0.00 | 65 | 1006.3 |
| 20260510050516 | 49 | 139 | 0.9 | 6.1 | 0.00 | 0.05 | 0.00 | 66 | 1006.2 |
| 20260510050016 | 50 | 113 | 0.9 | 6.1 | 0.00 | 0.05 | 0.00 | 66 | 1006.3 |
| 20260510045516 | 50 | 95 | 1.7 | 5.2 | 0.00 | 0.05 | 0.00 | 66 | 1005.9 |
| 20260510045238 | 50 | 47 | 1.7 | 5.2 | 0.00 | 0.05 | 0.00 | 67 | 1006.1 |
| 20260510044733 | 50 | 141 | 0.9 | 7.0 | 0.00 | 0.05 | 0.00 | 68 | 1005.9 |
| 20260510044016 | 50 | 134 | 2.6 | 7.0 | 0.00 | 0.05 | 0.00 | 69 | 1005.9 |
| 20260510043516 | 50 | 86 | 3.5 | 7.0 | 0.00 | 0.05 | 0.00 | 70 | 1005.9 |
| 20260510043015 | 50 | 153 | 2.6 | 7.0 | 0.00 | 0.05 | 0.00 | 71 | 1005.5 |
| 20260510042515 | 50 | 116 | 3.5 | 5.2 | 0.00 | 0.05 | 0.00 | 71 | 1005.6 |
| 20260510042016 | 50 | 134 | 0.9 | 6.1 | 0.00 | 0.05 | 0.00 | 72 | 1005.7 |
| 20260510041516 | 50 | 129 | 1.7 | 6.1 | 0.00 | 0.05 | 0.00 | 73 | 1005.3 |
| 20260510041016 | 50 | 115 | 0.9 | 3.5 | 0.00 | 0.05 | 0.00 | 73 | 1005.4 |
| 20260510040516 | 50 | 110 | 1.7 | 5.2 | 0.00 | 0.05 | 0.00 | 73 | 1005.3 |
| 20260510040016 | 50 | 143 | 0.9 | 6.1 | 0.00 | 0.05 | 0.00 | 74 | 1005.3 |
| 20260510035733 | 50 | 154 | 1.7 | 6.1 | 0.00 | 0.05 | 0.05 | 74 | 1005.3 |
| 20260510035015 | 50 | 130 | 4.3 | 5.2 | 0.00 | 0.05 | 0.05 | 74 | 1005.3 |
| 20260510034742 | 51 | 125 | 2.6 | 5.2 | 0.00 | 0.05 | 0.05 | 74 | 1005.2 |
| 20260510034014 | 51 | 125 | 0.9 | 3.5 | 0.00 | 0.05 | 0.05 | 73 | 1005.0 |
| 20260510033514 | 51 | 158 | 1.7 | 6.1 | 0.00 | 0.05 | 0.05 | 73 | 1004.9 |
| 20260510033014 | 51 | 146 | 2.6 | 6.1 | 0.00 | 0.05 | 0.05 | 72 | 1004.6 |
| 20260510032514 | 52 | 161 | 1.7 | 6.1 | 0.00 | 0.05 | 0.05 | 71 | 1004.9 |
| 20260510032013 | 52 | 167 | 2.6 | 6.1 | 0.00 | 0.05 | 0.05 | 71 | 1005.0 |
| 20260510031514 | 52 | 113 | 1.7 | 7.0 | 0.00 | 0.05 | 0.05 | 71 | 1005.1 |
| 20260510031014 | 52 | 120 | 3.5 | 7.0 | 0.00 | 0.05 | 0.05 | 70 | 1005.3 |
| 20260510030952 | 53 | 94 | 2.6 | 7.0 | 0.00 | 0.05 | 0.05 | 69 | 1004.9 |
| 20260510030232 | 53 | 105 | 2.6 | 7.8 | 0.00 | 0.05 | 0.05 | 68 | 1005.1 |
| 20260510025731 | 53 | 134 | 5.2 | 9.6 | 0.00 | 0.05 | 0.05 | 67 | 1005.0 |
| 20260510025014 | 53 | 144 | 5.2 | 11.3 | 0.00 | 0.05 | 0.05 | 68 | 1005.2 |
| 20260510024502 | 53 | 107 | 3.5 | 11.3 | 0.00 | 0.05 | 0.05 | 67 | 1004.7 |
| 20260510024002 | 53 | 128 | 5.2 | 11.3 | 0.00 | 0.05 | 0.05 | 69 | 1004.8 |
| 20260510023501 | 50 | 63 | 5.2 | 8.7 | 0.00 | 0.05 | 0.05 | 88 | 1004.9 |
| 20260510023001 | 50 | 105 | 0.0 | 5.2 | 0.00 | 0.05 | 0.05 | 92 | 1004.7 |
| 20260510022502 | 50 | 168 | 1.7 | 5.2 | 0.00 | 0.05 | 0.05 | 91 | 1005.0 |
| 20260510022002 | 50 | 352 | 0.0 | 0.9 | 0.00 | 0.05 | 0.05 | 91 | 1004.5 |
| 20260510021502 | 50 | 352 | 0.0 | 0.9 | 0.00 | 0.05 | 0.05 | 91 | 1004.3 |
| 20260510021212 | 50 | 50 | 0.0 | 0.0 | 0.00 | 0.05 | 0.05 | 91 | 1003.9 |
| 20260510020450 | 50 | 146 | 0.0 | 0.0 | 0.00 | 0.05 | 0.05 | 91 | 1003.9 |
| 20260510020212 | 50 | 135 | 0.0 | 0.0 | 0.00 | 0.05 | 0.05 | 91 | 1004.1 |
| 20260510015438 | 49 | 135 | 0.0 | 0.9 | 0.00 | 0.05 | 0.05 | 90 | 1003.8 |
| 20260510014938 | 49 | 176 | 0.0 | 0.9 | 0.00 | 0.05 | 0.05 | 90 | 1003.6 |
| 20260510014437 | 49 | 80 | 0.0 | 0.0 | 0.00 | 0.05 | 0.05 | 90 | 1003.6 |
| 20260510013937 | 49 | 80 | 0.0 | 0.0 | 0.00 | 0.05 | 0.05 | 89 | 1003.3 |
| 20260510013438 | 49 | 80 | 0.0 | 0.0 | 0.00 | 0.05 | 0.05 | 89 | 1003.3 |
| 20260510012938 | 49 | 80 | 0.0 | 0.0 | 0.00 | 0.05 | 0.05 | 89 | 1003.3 |
| 20260510012438 | 49 | 80 | 0.0 | 0.0 | 0.00 | 0.05 | 0.05 | 89 | 1003.5 |
| 20260510011938 | 49 | 80 | 0.0 | 0.0 | 0.00 | 0.05 | 0.05 | 88 | 1003.0 |
| 20260510011438 | 50 | 13 | 0.0 | 1.7 | 0.01 | 0.05 | 0.05 | 88 | 1003.3 |
| 20260510010938 | 50 | 50 | 0.9 | 1.7 | 0.01 | 0.05 | 0.05 | 88 | 1003.0 |
| 20260510010438 | 50 | 340 | 0.0 | 3.5 | 0.01 | 0.05 | 0.05 | 88 | 1003.2 |
| 20260510005938 | 50 | 334 | 0.9 | 3.5 | 0.01 | 0.05 | 0.05 | 87 | 1002.9 |
| 20260510005701 | 51 | 330 | 1.7 | 2.6 | 0.01 | 0.05 | 0.05 | 87 | 1002.8 |
| 20260510004938 | 51 | 333 | 0.9 | 3.5 | 0.01 | 0.05 | 0.05 | 86 | 1002.6 |
| 20260510004438 | 51 | 31 | 0.9 | 3.5 | 0.01 | 0.05 | 0.05 | 86 | 1002.8 |
| 20260510003938 | 51 | 57 | 2.6 | 2.6 | 0.01 | 0.05 | 0.05 | 86 | 1002.9 |
| 20260510003438 | 52 | 11 | 0.9 | 1.7 | 0.01 | 0.05 | 0.05 | 86 | 1002.5 |
| 20260510003205 | 52 | 4 | 0.0 | 0.9 | 0.01 | 0.05 | 0.05 | 85 | 1002.3 |
| 20260510002438 | 52 | 17 | 0.0 | 3.5 | 0.01 | 0.05 | 0.05 | 84 | 1002.4 |
| 20260510001938 | 52 | 3 | 0.0 | 3.5 | 0.01 | 0.05 | 0.05 | 83 | 1002.6 |
| 20260510001437 | 53 | 328 | 0.9 | 3.5 | 0.00 | 0.04 | 0.04 | 83 | 1002.4 |
| 20260510000937 | 53 | 41 | 0.9 | 2.6 | 0.00 | 0.04 | 0.04 | 83 | 1002.4 |
| 20260510000440 | 53 | 4 | 1.7 | 3.5 | 0.00 | 0.04 | 0.04 | 84 | 1002.2 |
| 20260509235938 | 53 | 11 | 0.9 | 5.2 | 0.00 | 0.04 | 0.04 | 83 | 1001.9 |
| 20260509235438 | 53 | 75 | 0.9 | 5.2 | 0.00 | 0.04 | 0.04 | 83 | 1001.9 |
| 20260509234938 | 53 | 50 | 0.9 | 5.2 | 0.00 | 0.04 | 0.04 | 83 | 1001.9 |
| 20260509234438 | 53 | 93 | 1.7 | 6.1 | 0.00 | 0.04 | 0.04 | 82 | 1001.7 |
| 20260509234157 | 53 | 97 | 0.9 | 7.8 | 0.00 | 0.04 | 0.04 | 83 | 1001.6 |
| 20260509233438 | 53 | 308 | 0.9 | 7.8 | 0.00 | 0.04 | 0.04 | 84 | 1001.5 |
| 20260509232938 | 53 | 32 | 1.7 | 3.5 | 0.00 | 0.04 | 0.04 | 84 | 1001.5 |
| 20260509232438 | 53 | 306 | 1.7 | 5.2 | 0.00 | 0.04 | 0.04 | 84 | 1001.2 |
| 20260509232204 | 53 | 16 | 0.0 | 6.1 | 0.01 | 0.04 | 0.04 | 86 | 1001.2 |
| 20260509231438 | 53 | 305 | 0.0 | 6.1 | 0.02 | 0.04 | 0.04 | 85 | 1001.3 |
| 20260509230938 | 52 | 45 | 3.5 | 5.2 | 0.03 | 0.04 | 0.04 | 86 | 1001.3 |
| 20260509230438 | 51 | 55 | 1.7 | 5.2 | 0.04 | 0.04 | 0.04 | 88 | 1001.3 |
| 20260509230158 | 51 | 39 | 0.9 | 3.5 | 0.04 | 0.04 | 0.04 | 89 | 1001.3 |
| 20260509225437 | 50 | 307 | 2.6 | 5.2 | 0.04 | 0.04 | 0.04 | 89 | 1001.6 |
| 20260509224937 | 50 | 307 | 1.7 | 6.1 | 0.04 | 0.04 | 0.04 | 88 | 1001.6 |
| 20260509224659 | 51 | 323 | 1.7 | 6.1 | 0.04 | 0.04 | 0.04 | 88 | 1001.8 |
| 20260509224200 | 51 | 304 | 1.7 | 3.5 | 0.04 | 0.04 | 0.04 | 89 | 1001.9 |
| 20260509223438 | 51 | 67 | 2.6 | 7.0 | 0.04 | 0.04 | 0.04 | 88 | 1002.1 |
| 20260509222938 | 51 | 351 | 0.9 | 7.0 | 0.04 | 0.04 | 0.04 | 88 | 1001.8 |
| 20260509222438 | 51 | 314 | 1.7 | 7.0 | 0.04 | 0.04 | 0.04 | 87 | 1001.7 |
| 20260509222157 | 51 | 342 | 1.7 | 5.2 | 0.03 | 0.03 | 0.03 | 87 | 1001.8 |
| 20260509221656 | 51 | 322 | 2.6 | 3.5 | 0.01 | 0.01 | 0.02 | 85 | 1002.0 |
| 20260509221201 | 51 | 30 | 1.7 | 6.1 | 0.01 | 0.01 | 0.01 | 83 | 1001.8 |
| 20260509220438 | 51 | 290 | 2.6 | 6.1 | 0.00 | 0.00 | 0.00 | 82 | 1001.7 |
| 20260509215938 | 51 | 265 | 0.9 | 6.1 | 0.00 | 0.00 | 0.00 | 81 | 1001.5 |
| 20260509215438 | 51 | 324 | 1.7 | 7.0 | 0.00 | 0.00 | 0.00 | 79 | 1002.0 |
| 20260509214938 | 51 | 314 | 2.6 | 7.0 | 0.00 | 0.00 | 0.00 | 78 | 1001.9 |
| 20260509214438 | 51 | 355 | 3.5 | 7.0 | 0.00 | 0.00 | 0.00 | 77 | 1001.9 |
| 20260509213937 | 52 | 327 | 3.5 | 9.6 | 0.00 | 0.00 | 0.00 | 77 | 1002.0 |
| 20260509213437 | 52 | 316 | 1.7 | 9.6 | 0.00 | 0.00 | 0.00 | 77 | 1002.0 |
| 20260509213428 | 52 | 267 | 3.5 | 7.0 | 0.00 | 0.00 | 0.00 | 77 | 1002.1 |
| 20260509212437 | 52 | 293 | 5.2 | 8.7 | 0.00 | 0.00 | 0.00 | 77 | 1002.3 |
| 20260509211937 | 52 | 358 | 3.5 | 8.7 | 0.00 | 0.00 | 0.00 | 77 | 1002.1 |
| 20260509211438 | 53 | 321 | 6.1 | 11.3 | 0.00 | 0.00 | 0.00 | 77 | 1001.9 |
| 20260509210938 | 53 | 329 | 7.0 | 13.0 | 0.00 | 0.00 | 0.00 | 76 | 1001.8 |
| 20260509210438 | 53 | 283 | 7.0 | 13.0 | 0.00 | 0.00 | 0.00 | 76 | 1001.5 |
| 20260509205938 | 53 | 275 | 4.3 | 12.2 | 0.00 | 0.00 | 0.00 | 77 | 1001.3 |
| 20260509205438 | 53 | 293 | 3.5 | 12.2 | 0.00 | 0.00 | 0.00 | 77 | 1001.6 |
| 20260509204938 | 53 | 304 | 3.5 | 11.3 | 0.00 | 0.00 | 0.00 | 77 | 1001.6 |
| 20260509204925 | 53 | 282 | 5.2 | 11.3 | 0.00 | 0.00 | 0.00 | 77 | 1001.7 |
| 20260509203937 | 53 | 311 | 7.0 | 9.6 | 0.00 | 0.00 | 0.00 | 77 | 1002.0 |
| 20260509203437 | 54 | 321 | 5.2 | 12.2 | 0.00 | 0.00 | 0.00 | 76 | 1002.1 |
| 20260509202937 | 54 | 312 | 5.2 | 12.2 | 0.00 | 0.00 | 0.00 | 76 | 1002.4 |
| 20260509202438 | 54 | 326 | 3.5 | 8.7 | 0.00 | 0.00 | 0.00 | 75 | 1002.4 |
| 20260509202204 | 54 | 288 | 5.2 | 9.6 | 0.00 | 0.00 | 0.00 | 75 | 1002.1 |
| 20260509201437 | 55 | 296 | 3.5 | 9.6 | 0.00 | 0.00 | 0.00 | 75 | 1002.0 |
| 20260509201200 | 55 | 317 | 3.5 | 9.6 | 0.00 | 0.00 | 0.00 | 75 | 1002.0 |
| 20260509200658 | 55 | 306 | 7.0 | 12.2 | 0.00 | 0.00 | 0.00 | 75 | 1002.3 |
| 20260509195938 | 55 | 25 | 6.1 | 12.2 | 0.00 | 0.00 | 0.00 | 74 | 1002.2 |
| 20260509195438 | 55 | 259 | 7.8 | 12.2 | 0.00 | 0.00 | 0.00 | 73 | 1002.4 |
| 20260509194937 | 55 | 316 | 7.0 | 12.2 | 0.00 | 0.00 | 0.00 | 73 | 1002.5 |
| 20260509194438 | 56 | 284 | 4.3 | 11.3 | 0.00 | 0.00 | 0.00 | 73 | 1002.5 |
| 20260509193937 | 56 | 301 | 6.1 | 11.3 | 0.00 | 0.00 | 0.00 | 73 | 1002.6 |
| 20260509193437 | 56 | 261 | 6.1 | 11.3 | 0.00 | 0.00 | 0.00 | 72 | 1002.3 |
| 20260509193201 | 56 | 310 | 2.6 | 12.2 | 0.00 | 0.00 | 0.00 | 74 | 1002.8 |
| 20260509192438 | 56 | 352 | 6.1 | 12.2 | 0.00 | 0.00 | 0.00 | 73 | 1002.9 |
| 20260509191938 | 56 | 320 | 7.0 | 13.9 | 0.00 | 0.00 | 0.00 | 74 | 1002.7 |
| 20260509191438 | 57 | 301 | 4.3 | 13.9 | 0.00 | 0.00 | 0.00 | 73 | 1002.6 |
| 20260509190938 | 58 | 311 | 7.0 | 12.2 | 0.00 | 0.00 | 0.00 | 70 | 1002.7 |
| 20260509190437 | 58 | 285 | 4.3 | 11.3 | 0.00 | 0.00 | 0.00 | 71 | 1002.6 |
| 20260509185938 | 58 | 317 | 7.0 | 9.6 | 0.00 | 0.00 | 0.00 | 71 | 1002.8 |
| 20260509185439 | 57 | 321 | 5.2 | 9.6 | 0.00 | 0.00 | 0.00 | 72 | 1002.7 |
| 20260509184938 | 58 | 21 | 5.2 | 9.6 | 0.00 | 0.00 | 0.00 | 70 | 1002.9 |
| 20260509184438 | 58 | 318 | 7.0 | 11.3 | 0.00 | 0.00 | 0.00 | 71 | 1003.1 |
| 20260509183938 | 58 | 323 | 7.8 | 11.3 | 0.00 | 0.00 | 0.00 | 71 | 1002.9 |
| 20260509183438 | 59 | 16 | 2.6 | 9.6 | 0.00 | 0.00 | 0.00 | 70 | 1002.8 |
| 20260509182938 | 59 | 285 | 7.8 | 9.6 | 0.00 | 0.00 | 0.00 | 69 | 1002.7 |
| 20260509182438 | 59 | 321 | 3.5 | 9.6 | 0.00 | 0.00 | 0.00 | 71 | 1003.2 |
| 20260509181937 | 59 | 312 | 6.1 | 11.3 | 0.00 | 0.00 | 0.00 | 69 | 1003.1 |
| 20260509181655 | 60 | 327 | 2.6 | 11.3 | 0.00 | 0.00 | 0.00 | 70 | 1003.2 |
| 20260509180938 | 59 | 351 | 1.7 | 11.3 | 0.00 | 0.00 | 0.00 | 73 | 1003.3 |
| 20260509180438 | 59 | 304 | 5.2 | 12.2 | 0.00 | 0.00 | 0.00 | 73 | 1003.4 |
| 20260509175938 | 59 | 19 | 4.3 | 12.2 | 0.00 | 0.00 | 0.00 | 72 | 1003.3 |
| 20260509175654 | 59 | 318 | 5.2 | 9.6 | 0.00 | 0.00 | 0.00 | 72 | 1003.3 |
| 20260509174938 | 58 | 26 | 3.5 | 9.6 | 0.00 | 0.00 | 0.00 | 73 | 1003.5 |
| 20260509174438 | 58 | 329 | 5.2 | 9.6 | 0.00 | 0.00 | 0.00 | 73 | 1003.3 |
| 20260509173938 | 58 | 305 | 7.0 | 7.8 | 0.00 | 0.00 | 0.00 | 72 | 1003.7 |
| 20260509173438 | 58 | 312 | 2.6 | 8.7 | 0.00 | 0.00 | 0.00 | 72 | 1003.8 |
| 20260509173159 | 58 | 358 | 5.2 | 8.7 | 0.00 | 0.00 | 0.00 | 73 | 1003.8 |
| 20260509172438 | 57 | 308 | 4.3 | 9.6 | 0.00 | 0.00 | 0.00 | 75 | 1004.2 |
| 20260509171938 | 57 | 29 | 5.2 | 9.6 | 0.00 | 0.00 | 0.00 | 73 | 1004.0 |
| 20260509171438 | 57 | 333 | 3.5 | 7.8 | 0.00 | 0.00 | 0.00 | 74 | 1003.8 |
| 20260509170938 | 58 | 30 | 2.6 | 7.8 | 0.00 | 0.00 | 0.00 | 72 | 1003.9 |
| 20260509170438 | 58 | 355 | 5.2 | 7.8 | 0.00 | 0.00 | 0.00 | 73 | 1004.0 |
| 20260509165938 | 58 | 319 | 7.0 | 7.8 | 0.00 | 0.00 | 0.00 | 72 | 1004.3 |
| 20260509165438 | 58 | 349 | 3.5 | 7.8 | 0.00 | 0.00 | 0.00 | 72 | 1003.9 |
| 20260509164938 | 57 | 304 | 6.1 | 7.8 | 0.00 | 0.00 | 0.00 | 73 | 1004.4 |
| 20260509164437 | 57 | 292 | 5.2 | 7.8 | 0.00 | 0.00 | 0.00 | 75 | 1004.1 |
| 20260509163938 | 57 | 347 | 0.9 | 8.7 | 0.00 | 0.00 | 0.00 | 74 | 1004.5 |
| 20260509163438 | 57 | 293 | 2.6 | 8.7 | 0.00 | 0.00 | 0.00 | 75 | 1004.3 |
| 20260509162938 | 57 | 328 | 7.0 | 8.7 | 0.00 | 0.00 | 0.00 | 75 | 1004.8 |
| 20260509162437 | 57 | 313 | 4.3 | 7.0 | 0.00 | 0.00 | 0.00 | 74 | 1004.5 |
| 20260509162158 | 55 | 337 | 2.6 | 8.7 | 0.00 | 0.00 | 0.00 | 76 | 1004.7 |
| 20260509161700 | 55 | 308 | 2.6 | 8.7 | 0.00 | 0.00 | 0.00 | 75 | 1004.5 |
| 20260509160938 | 54 | 332 | 5.2 | 7.8 | 0.00 | 0.00 | 0.00 | 77 | 1004.7 |
| 20260509160659 | 54 | 336 | 1.7 | 7.8 | 0.00 | 0.00 | 0.00 | 76 | 1004.6 |
| 20260509155937 | 54 | 334 | 2.6 | 7.0 | 0.00 | 0.00 | 0.00 | 75 | 1004.8 |
| 20260509155438 | 54 | 1 | 2.6 | 7.0 | 0.00 | 0.00 | 0.00 | 76 | 1005.1 |
| 20260509154938 | 54 | 352 | 3.5 | 7.8 | 0.00 | 0.00 | 0.00 | 75 | 1005.1 |
| 20260509154438 | 54 | 316 | 3.5 | 7.8 | 0.00 | 0.00 | 0.00 | 75 | 1005.0 |
| 20260509154200 | 55 | 302 | 4.3 | 7.8 | 0.00 | 0.00 | 0.00 | 74 | 1005.0 |
| 20260509153437 | 55 | 336 | 3.5 | 7.8 | 0.00 | 0.00 | 0.00 | 73 | 1005.0 |
| 20260509152937 | 55 | 359 | 5.2 | 7.8 | 0.00 | 0.00 | 0.00 | 74 | 1004.8 |
| 20260509152438 | 54 | 323 | 2.6 | 7.0 | 0.00 | 0.00 | 0.00 | 76 | 1005.0 |
| 20260509151926 | 55 | 254 | 0.9 | 9.6 | 0.00 | 0.00 | 0.00 | 77 | 1004.8 |
| 20260509151426 | 54 | 2 | 3.5 | 9.6 | 0.00 | 0.00 | 0.00 | 76 | 1004.9 |
| 20260509150926 | 54 | 290 | 6.1 | 8.7 | 0.00 | 0.00 | 0.00 | 74 | 1005.2 |
| 20260509150426 | 55 | 311 | 7.0 | 8.7 | 0.00 | 0.00 | 0.00 | 73 | 1005.2 |
| 20260509145926 | 54 | 349 | 5.2 | 9.6 | 0.00 | 0.00 | 0.00 | 75 | 1005.2 |
| 20260509145426 | 54 | 22 | 2.6 | 9.6 | 0.00 | 0.00 | 0.00 | 74 | 1005.4 |
| 20260509144926 | 55 | 28 | 4.3 | 8.7 | 0.00 | 0.00 | 0.00 | 71 | 1005.4 |
| 20260509144426 | 54 | 3 | 3.5 | 8.7 | 0.00 | 0.00 | 0.00 | 73 | 1005.6 |
| 20260509143926 | 54 | 1 | 3.5 | 7.8 | 0.00 | 0.00 | 0.00 | 72 | 1005.6 |
| 20260509143425 | 54 | 325 | 1.7 | 7.8 | 0.00 | 0.00 | 0.00 | 73 | 1005.5 |
| 20260509143147 | 54 | 26 | 1.7 | 7.0 | 0.00 | 0.00 | 0.00 | 72 | 1005.6 |
| 20260509142426 | 53 | 359 | 1.7 | 7.0 | 0.00 | 0.00 | 0.00 | 74 | 1005.7 |
| 20260509141925 | 53 | 323 | 4.3 | 7.0 | 0.00 | 0.00 | 0.00 | 72 | 1005.8 |
| 20260509141426 | 53 | 311 | 5.2 | 7.0 | 0.00 | 0.00 | 0.00 | 72 | 1005.6 |
| 20260509140926 | 53 | 13 | 3.5 | 7.0 | 0.00 | 0.00 | 0.00 | 71 | 1005.6 |
| 20260509140426 | 53 | 58 | 3.5 | 7.0 | 0.00 | 0.00 | 0.00 | 73 | 1005.7 |
| 20260509135926 | 52 | 351 | 2.6 | 6.1 | 0.00 | 0.00 | 0.00 | 72 | 1005.3 |
| 20260509135426 | 52 | 15 | 0.9 | 6.1 | 0.00 | 0.00 | 0.00 | 71 | 1005.6 |
| 20260509134926 | 52 | 304 | 2.6 | 6.1 | 0.00 | 0.00 | 0.00 | 72 | 1005.6 |
| 20260509134425 | 52 | 7 | 2.6 | 6.1 | 0.00 | 0.00 | 0.00 | 70 | 1005.6 |
| 20260509134142 | 52 | 300 | 0.9 | 6.1 | 0.00 | 0.00 | 0.00 | 70 | 1006.0 |
| 20260509133642 | 52 | 2 | 4.3 | 6.1 | 0.00 | 0.00 | 0.00 | 68 | 1006.1 |
| 20260509132926 | 52 | 340 | 4.3 | 7.0 | 0.00 | 0.00 | 0.00 | 70 | 1005.9 |
| 20260509132414 | 52 | 312 | 6.1 | 7.0 | 0.00 | 0.00 | 0.00 | 69 | 1005.9 |
| 20260509131914 | 53 | 290 | 2.6 | 6.1 | 0.00 | 0.00 | 0.00 | 68 | 1006.0 |
| 20260509131413 | 52 | 316 | 5.2 | 6.1 | 0.00 | 0.00 | 0.00 | 68 | 1005.8 |
| 20260509130913 | 52 | 12 | 1.7 | 5.2 | 0.00 | 0.00 | 0.00 | 67 | 1006.1 |
| 20260509130413 | 51 | 280 | 0.9 | 6.1 | 0.00 | 0.00 | 0.00 | 66 | 1006.0 |
| 20260509125914 | 51 | 234 | 0.9 | 6.1 | 0.00 | 0.00 | 0.00 | 65 | 1005.9 |
| 20260509125414 | 51 | 318 | 0.9 | 3.5 | 0.00 | 0.00 | 0.00 | 64 | 1005.9 |
| 20260509125132 | 51 | 339 | 3.5 | 5.2 | 0.00 | 0.00 | 0.00 | 62 | 1005.9 |
| 20260509124413 | 50 | 7 | 1.7 | 5.2 | 0.00 | 0.00 | 0.00 | 65 | 1005.9 |
| 20260509123913 | 50 | 279 | 2.6 | 6.1 | 0.00 | 0.00 | 0.00 | 62 | 1006.1 |
| 20260509123414 | 49 | 288 | 1.7 | 6.1 | 0.00 | 0.00 | 0.00 | 63 | 1005.8 |
| 20260509122914 | 49 | 311 | 1.7 | 5.2 | 0.00 | 0.00 | 0.00 | 63 | 1005.8 |
| 20260509122414 | 49 | 290 | 1.7 | 3.5 | 0.00 | 0.00 | 0.00 | 62 | 1005.9 |
| 20260509121914 | 48 | 304 | 0.9 | 5.2 | 0.00 | 0.00 | 0.00 | 64 | 1005.9 |
| 20260509121414 | 47 | 266 | 3.5 | 5.2 | 0.00 | 0.00 | 0.00 | 63 | 1005.9 |
| 20260509121134 | 47 | 302 | 3.5 | 5.2 | 0.00 | 0.00 | 0.00 | 63 | 1006.1 |
| 20260509120414 | 47 | 302 | 0.9 | 3.5 | 0.00 | 0.00 | 0.00 | 63 | 1005.9 |
| 20260509115914 | 47 | 276 | 0.9 | 3.5 | 0.00 | 0.00 | 0.00 | 62 | 1006.1 |
| 20260509115413 | 47 | 278 | 0.9 | 3.5 | 0.00 | 0.00 | 0.00 | 63 | 1006.1 |
| 20260509114914 | 47 | 285 | 1.7 | 5.2 | 0.00 | 0.00 | 0.00 | 64 | 1006.0 |
| 20260509114414 | 46 | 275 | 1.7 | 5.2 | 0.00 | 0.00 | 0.00 | 63 | 1005.9 |
| 20260509113914 | 46 | 290 | 0.9 | 5.2 | 0.00 | 0.00 | 0.00 | 63 | 1005.8 |
| 20260509113414 | 46 | 261 | 2.6 | 3.5 | 0.00 | 0.00 | 0.00 | 62 | 1005.9 |
| 20260509112914 | 45 | 269 | 1.7 | 3.5 | 0.00 | 0.00 | 0.00 | 64 | 1005.8 |
| 20260509112414 | 45 | 264 | 0.0 | 3.5 | 0.00 | 0.00 | 0.00 | 65 | 1006.1 |
| 20260509112135 | 44 | 294 | 0.9 | 5.2 | 0.00 | 0.00 | 0.00 | 64 | 1006.3 |
| 20260509111413 | 44 | 248 | 2.6 | 5.2 | 0.00 | 0.00 | 0.00 | 65 | 1006.0 |
| 20260509110914 | 42 | 235 | 1.7 | 3.5 | 0.00 | 0.00 | 0.00 | 67 | 1006.3 |
| 20260509110414 | 41 | 214 | 0.9 | 2.6 | 0.00 | 0.00 | 0.00 | 69 | 1005.9 |
| 20260509105914 | 41 | 228 | 0.9 | 1.7 | 0.00 | 0.00 | 0.00 | 70 | 1006.2 |
| 20260509105414 | 41 | 245 | 0.0 | 2.6 | 0.00 | 0.00 | 0.00 | 71 | 1006.4 |
| 20260509104914 | 40 | 225 | 0.9 | 2.6 | 0.00 | 0.00 | 0.00 | 72 | 1006.4 |
| 20260509104414 | 40 | 262 | 0.0 | 1.7 | 0.00 | 0.00 | 0.00 | 72 | 1006.1 |
| 20260509103913 | 40 | 224 | 0.0 | 1.7 | 0.00 | 0.00 | 0.00 | 72 | 1006.4 |
| 20260509103413 | 40 | 219 | 0.9 | 1.7 | 0.00 | 0.00 | 0.00 | 73 | 1006.4 |
| 20260509103134 | 40 | 223 | 0.0 | 0.9 | 0.00 | 0.00 | 0.00 | 73 | 1006.5 |
| 20260509102414 | 39 | 220 | 0.0 | 0.9 | 0.00 | 0.00 | 0.00 | 74 | 1006.1 |
| 20260509102138 | 39 | 207 | 0.9 | 0.9 | 0.00 | 0.00 | 0.00 | 75 | 1006.4 |
| 20260509101413 | 39 | 237 | 0.0 | 0.9 | 0.00 | 0.00 | 0.00 | 76 | 1006.3 |
| 20260509100914 | 39 | 262 | 0.0 | 0.9 | 0.00 | 0.00 | 0.00 | 76 | 1006.4 |
| 20260509100640 | 39 | 257 | 0.0 | 0.9 | 0.00 | 0.00 | 0.00 | 76 | 1006.5 |
| 20260509095914 | 39 | 208 | 0.0 | 0.9 | 0.00 | 0.00 | 0.00 | 76 | 1006.4 |
| 20260509095414 | 39 | 190 | 0.9 | 0.9 | 0.00 | 0.00 | 0.00 | 76 | 1006.6 |